CAPE
35 47 33 49 45 39 67 74 64 61 74 90 74 72 78 56 32 56 61 69 41 44 58 118 72 30 17 16 0 6 189 218 64 56 7 0 1 0 0 0 0 0 0 0 0 0 0
53 65 40 46 62 80 57 50 66 79 78 83 105 108 89 96 60 22 47 60 63 58 21 35 109 80 17 2 0 0 0 22 56 64 48 44 0 0 0 0 0 0 0 0 0 0 0
38 25 73 44 58 41 61 60 71 78 93 114 114 141 154 116 87 55 64 86 66 44 10 6 132 36 0 0 0 0 0 0 0 76 35 61 26 8 0 3 0 0 0 0 0 0 0
26 62 35 43 61 66 74 81 87 100 126 141 142 150 194 158 150 117 94 89 66 25 0 0 97 24 3 0 0 0 0 0 0 7 71 72 1 0 0 0 0 0 0 0 0 0 0
69 38 54 52 57 76 80 93 107 124 142 159 158 167 174 173 151 150 118 104 52 14 3 2 78 23 3 0 0 0 0 0 0 54 48 25 5 0 0 0 1 1 0 0 0 0 0
36 49 49 48 78 85 99 105 113 125 143 142 168 187 203 194 140 164 141 113 30 9 0 3 39 18 3 0 0 0 0 0 6 59 16 1 0 0 0 1 0 0 0 0 0 0 0
43 60 52 68 84 90 107 124 109 120 146 145 154 195 169 107 137 127 20 0 2 45 22 57 15 0 0 0 0 0 0 0 44 24 28 4 0 2 1 0 0 0 0 0 0 0 0
55 59 61 74 78 94 107 101 93 108 140 140 126 103 74 87 193 191 98 9 1 3 5 16 0 1 0 0 0 0 0 0 9 4 0 0 0 0 0 0 3 0 0 0 0 0 0
47 47 49 75 85 99 84 84 80 92 105 130 128 69 94 130 191 28 4 3 30 7 5 19 15 6 0 0 0 0 2 0 1 3 0 0 0 0 0 0 0 0 0 0 0 0 0
46 45 51 79 89 84 70 74 70 71 75 75 63 62 97 144 90 30 0 18 4 0 1 23 34 10 3 13 0 0 9 0 3 0 0 0 0 0 0 0 0 0 0 0 0 0 0
28 32 55 78 93 75 63 69 60 66 41 53 48 40 41 76 24 16 27 0 0 0 3 17 25 10 10 0 0 8 0 0 0 0 0 0 0 0 0 0 0 0 0 0 0 0 0
33 31 54 81 76 61 61 46 65 37 25 88 59 67 86 13 46 36 3 0 0 0 0 11 6 22 23 12 4 0 0 0 0 3 0 0 0 0 0 0 0 0 0 0 0 0 0
30 44 59 75 74 64 46 55 67 32 28 77 81 107 66 52 52 6 0 0 0 0 6 5 13 13 8 24 1 3 0 0 0 0 0 0 0 0 0 0 0 0 0 0 0 0 0
27 47 60 60 68 70 40 48 50 38 61 99 91 88 5 55 35 0 1 1 0 5 12 7 5 10 9 16 7 10 1 0 0 0 0 0 0 0 0 0 0 0 0 0 0 0 0
30 44 69 64 63 55 26 46 42 64 100 101 18 2 10 18 0 6 32 0 1 20 4 11 10 0 18 13 9 8 4 0 0 0 0 0 0 0 0 0 0 0 1 0 0 0 0
17 43 54 58 65 36 27 46 25 71 96 7 0 2 18 31 0 0 6 30 5 9 3 0 0 3 8 17 8 8 12 1 0 0 0 0 0 0 1 0 0 0 0 0 0 0 0
24 30 45 47 54 33 22 34 21 37 65 12 0 11 2 10 18 8 3 2 6 8 0 4 0 4 3 10 5 9 0 0 0 0 0 0 0 0 0 0 0 0 0 0 0 0 0
27 27 29 51 38 32 19 26 20 30 40 0 0 7 0 0 0 3 0 3 11 0 0 5 0 0 0 1 1 0 0 0 0 0 0 0 0 0 0 0 0 0 0 0 0 0 0
27 17 30 44 38 26 11 17 16 22 31 0 0 0 0 0 0 0 4 1 11 16 15 9 4 0 0 0 0 0 0 0 0 0 5 0 0 0 0 0 0 0 0 0 0 0 0
22 12 22 27 29 29 8 16 9 7 2 0 0 0 0 0 0 0 5 0 8 3 1 0 0 0 0 4 0 0 0 0 0 0 6 0 0 0 0 0 0 0 0 0 0 0 0
19 11 14 19 33 30 10 13 6 13 0 0 0 0 1 0 0 0 0 0 0 0 0 0 10 0 0 0 0 1 0 0 0 0 0 0 0 0 0 0 0 0 0 0 0 0 0
21 16 14 20 25 29 36 12 7 13 0 0 1 2 0 0 0 0 0 0 3 0 0 0 0 1 0 0 1 0 0 0 0 0 0 0 0 0 0 0 0 0 0 0 0 0 0
25 15 16 21 17 10 11 14 6 6 0 1 1 1 5 0 0 0 0 1 0 0 0 0 1 2 7 3 0 0 0 0 0 0 0 2 0 0 0 0 0 0 0 0 0 0 1
17 19 16 27 19 10 9 8 7 3 1 1 9 6 4 0 0 0 0 0 0 0 0 0 0 4 1 0 0 0 0 0 0 0 0 1 1 1 0 0 0 0 0 0 0 0 0
13 15 19 28 29 13 10 14 11 6 2 0 5 3 7 0 0 0 0 0 2 0 1 0 0 0 0 0 0 1 0 5 0 0 1 2 3 0 1 0 0 0 0 0 0 0 0
13 29 11 19 27 24 10 14 16 11 4 0 6 0 3 6 0 0 5 0 0 3 1 7 1 0 0 0 0 0 2 1 2 2 2 0 0 10 0 0 0 0 0 0 0 0 0
15 38 6 17 17 27 12 15 11 12 7 0 2 0 2 7 0 0 0 0 1 0 6 9 5 5 0 0 0 0 0 0 0 1 6 4 12 2 9 8 0 0 0 0 0 0 0
8 31 12 12 20 25 25 20 11 17 11 1 0 0 0 5 1 0 0 5 2 4 12 0 0 0 0 0 0 0 0 0 0 0 0 0 1 6 19 6 0 0 0 0 0 0 0
4 28 10 3 14 28 8 16 12 10 10 8 0 0 8 3 1 0 0 0 0 0 0 2 0 0 7 4 3 0 0 0 0 0 0 0 0 0 0 0 0 0 0 0 0 0 0
CIN
0 0 0 0 0 0 0 0 0 0 0 0 0 0 0 0 0 0 0 0 0 0 0 0 -3 0 -1 0 0 -27 -25 -1 -2 -8 -4 0 -3 0 -3 0 0 0 0 0 0 0 0
0 0 0 0 0 0 0 0 0 0 0 0 0 0 0 0 0 0 0 0 0 0 -2 -1 0 -8 0 0 0 0 0 -32 -16 -12 -16 -20 0 0 0 0 0 0 0 0 0 0 0
0 -1 0 0 0 0 0 0 0 0 0 0 0 0 0 0 0 0 0 0 0 0 -8 0 -1 0 0 0 0 0 0 0 0 -13 -20 -32 -29 -7 0 -5 0 0 0 0 0 0 0
0 0 0 0 0 0 0 0 0 0 0 0 0 0 0 0 0 -1 -2 -1 -1 -7 0 0 -1 -1 -2 0 0 0 0 0 0 -10 -19 -35 -31 -24 0 0 0 0 0 0 0 0 0
0 0 0 0 0 0 0 0 0 0 0 0 0 0 0 0 -1 -1 -5 -2 -11 -17 0 0 -13 -4 -1 0 0 0 0 0 0 -15 -46 -26 -46 -4 0 0 -7 -8 0 0 0 0 0
0 0 0 0 0 0 0 0 0 0 0 0 0 0 0 0 0 0 0 -1 -50 -39 0 0 -2 -3 -3 0 0 0 0 0 -5 -23 -11 -6 0 0 0 -3 -1 0 0 0 0 0 0
0 0 0 0 0 0 0 0 0 0 0 0 0 0 0 0 0 0 -4 -1 -5 0 -23 0 0 0 0 0 0 0 0 0 -13 -7 -1 -6 -6 -1 -8 0 0 -37 0 0 0 0 0
0 0 0 0 0 0 0 0 0 0 0 0 0 -1 -1 0 0 0 0 -3 -2 0 -5 0 0 -3 0 0 0 0 0 0 -4 -2 0 0 0 0 0 0 -30 -1 0 0 0 0 0
0 0 0 0 0 0 0 0 0 0 0 0 0 -19 -1 0 0 -29 -4 -2 -30 -25 0 0 -2 -2 0 0 0 0 -4 0 -4 -1 0 0 0 0 0 0 0 0 0 0 0 0 0
0 0 0 0 0 0 0 0 0 0 0 0 0 -25 0 0 -7 -11 0 -18 -33 -6 0 0 0 -4 -13 -6 0 0 -11 -3 -5 -1 -3 0 0 0 0 0 0 0 0 0 0 0 0
0 0 0 0 0 0 0 0 0 0 0 0 0 0 -8 -15 -2 0 -3 0 0 0 -1 0 0 -1 -37 0 -4 -10 -14 0 -9 -6 0 0 0 0 0 0 0 0 0 0 0 0 0
0 0 0 0 0 0 0 0 0 0 0 0 0 -53 -22 -34 -39 -7 -2 0 0 0 0 0 0 -1 -9 -7 -5 -7 0 0 0 -7 0 0 0 0 0 0 0 0 0 0 0 0 0
0 0 0 0 0 0 0 0 0 0 0 0 0 -21 -46 -63 -36 -25 0 0 0 0 0 0 0 -3 -7 -1 -3 -1 -3 -13 0 0 0 0 0 0 0 0 0 0 0 0 0 -1 0
0 0 0 0 0 0 0 0 0 0 0 -16 -9 -2 -26 -12 -9 0 -4 0 0 0 0 -3 -2 -5 -3 -4 -1 -5 -6 0 0 0 0 0 0 0 0 0 0 0 0 0 0 0 0
0 0 0 0 0 0 0 0 0 0 0 -2 -12 -33 -22 -6 -1 -13 -1 0 0 0 0 -1 -2 -3 0 -6 -7 -10 -9 -9 0 0 0 0 0 0 0 -1 -3 0 -1 0 0 0 0
0 0 0 0 0 0 0 0 0 0 0 -10 0 -11 -3 -18 -10 -6 -1 0 -1 0 -3 -21 0 -1 -2 -1 -8 -8 -6 -5 0 0 0 0 0 0 -5 -2 -5 0 0 0 0 0 0
0 0 0 0 0 0 0 0 0 0 -6 -3 0 -7 -11 -33 -19 -1 0 0 -1 0 -1 -1 0 -1 -14 -4 -9 -4 0 0 0 0 0 0 0 0 0 0 0 0 -1 -1 0 0 0
0 0 0 0 0 0 0 0 0 0 0 0 0 0 0 0 0 0 0 0 0 0 0 -8 0 0 0 -17 -3 -1 0 0 0 0 0 0 0 0 0 0 0 0 0 0 0 0 0
0 0 0 0 0 0 0 0 0 0 0 -1 -1 0 0 0 0 0 -1 0 -17 -5 -4 -7 -7 0 0 0 0 0 0 0 0 0 -10 0 0 0 0 0 0 0 0 0 0 0 0
0 0 0 0 0 0 0 0 0 0 -2 0 0 0 0 0 0 -1 0 0 -10 -16 -5 0 0 0 0 -24 0 0 0 0 0 0 -26 0 0 0 0 0 0 0 0 0 0 -3 0
0 0 0 0 0 0 0 0 0 0 -2 0 0 0 0 0 0 0 0 0 -4 0 0 -1 -3 0 0 0 -2 -2 0 0 0 0 0 0 -1 0 0 0 0 0 0 0 0 0 0
0 0 0 0 0 0 0 0 0 0 0 0 0 0 0 0 0 0 0 0 -6 0 0 0 0 -20 -1 -17 -17 -3 -2 0 0 0 0 0 0 0 0 0 0 0 0 0 0 0 0
0 0 0 0 0 0 0 0 0 0 0 -4 -2 -1 -1 0 0 -5 -2 -6 0 0 0 0 -5 -15 -38 -45 0 0 0 0 0 0 0 -25 0 0 0 0 0 0 0 0 0 0 -2
0 0 0 0 0 0 0 0 0 0 0 -2 -1 0 0 0 0 0 0 0 0 0 0 0 -6 -35 -14 0 0 0 0 0 0 0 0 -23 -20 -27 0 0 0 0 0 0 0 0 -1
0 0 0 0 0 0 0 0 0 0 0 0 -2 0 0 0 0 -11 0 0 -11 0 -6 0 0 0 0 0 0 -11 -1 -12 -3 -21 -18 -32 -22 0 0 0 0 0 0 0 0 0 0
0 0 0 0 0 0 0 0 0 0 0 0 0 0 0 0 0 0 -17 0 0 -6 -3 -8 -3 0 0 0 0 0 -1 -2 -1 -7 -17 0 0 -1 0 0 0 0 0 0 0 0 0
0 0 -1 0 0 -1 0 0 0 0 0 0 -4 0 0 0 0 0 -28 -11 -16 -7 -15 -27 -32 -16 0 0 0 0 0 0 0 -1 0 0 -1 0 0 0 0 0 0 0 0 0 0
0 0 0 0 0 0 0 0 0 0 0 -1 0 0 0 0 0 0 0 -32 -34 -13 -6 -14 0 0 0 -1 0 0 0 0 0 0 0 0 0 0 0 -3 0 0 0 0 0 0 0
0 0 -1 0 0 -1 0 -2 -1 -1 0 -2 0 -1 -12 0 0 0 0 0 0 0 0 -36 -4 -1 -11 -3 -3 0 0 0 0 0 0 0 0 0 0 0 0 0 0 0 0 0 0
Wind_Speed
19 19 22 22 22 23 22 23 23 22 21 22 22 22 22 21 21 18 21 21 20 17 17 14 13 10 4 5 7 2 5 20 12 8 9 9 6 5 6 6 6 6 6 10 9 9 5
24 19 21 22 23 25 25 26 26 25 23 21 21 21 20 19 20 21 20 21 20 14 20 19 15 11 4 8 7 7 7 8 9 11 8 7 6 7 3 6 6 5 4 2 5 7 4
23 23 22 23 26 25 26 26 26 25 23 21 20 21 21 20 18 19 20 19 16 16 15 19 19 10 6 12 4 6 6 8 10 10 8 12 3 5 3 4 2 4 3 6 5 6 6
21 22 24 26 25 26 27 26 24 25 24 22 22 20 20 19 20 18 17 15 17 17 16 19 16 8 6 10 8 3 1 4 5 6 11 4 3 3 2 3 2 3 3 1 7 10 9
22 24 25 24 25 25 27 27 26 25 24 23 21 19 17 18 18 17 14 15 19 19 16 17 11 6 6 6 9 8 6 7 6 4 5 7 2 3 2 5 2 2 3 6 7 9 7
25 24 25 24 25 27 26 26 25 25 23 22 20 19 18 20 14 16 17 20 21 17 7 5 4 3 5 8 6 9 5 5 4 12 7 4 3 3 1 3 6 6 5 5 6 5 2
22 25 26 26 26 25 25 25 24 24 23 20 19 18 20 19 14 17 8 5 4 3 3 4 13 6 8 8 8 12 6 6 6 5 5 4 3 8 10 7 3 4 4 4 4 5 2
23 24 24 26 25 24 25 25 24 23 22 20 19 19 18 16 18 17 11 4 3 5 5 19 20 4 12 11 9 11 7 6 6 4 7 4 1 3 6 9 9 4 5 5 6 5 5
23 24 26 25 24 25 24 25 24 23 23 22 22 19 19 19 21 10 5 10 6 6 3 7 11 8 8 5 6 14 11 6 6 5 5 6 5 13 8 1 6 1 3 4 5 7 6
23 24 24 26 25 24 25 24 23 23 23 22 20 19 19 22 11 4 8 7 7 5 3 9 6 8 6 7 5 6 7 6 5 9 5 2 3 4 2 3 2 0 4 4 4 5 4
24 24 25 26 25 23 25 25 25 24 24 22 20 21 22 19 9 4 3 14 8 3 3 12 9 7 5 1 16 10 1 2 8 9 6 4 4 5 3 2 4 3 6 4 3 3 5
23 24 26 26 24 24 24 26 25 26 24 22 23 24 25 9 2 3 10 11 4 3 3 4 8 11 7 15 3 7 3 2 3 6 4 4 4 4 5 3 4 4 4 3 3 2 3
21 23 26 25 25 25 26 27 27 27 25 26 27 26 17 5 2 14 11 3 9 1 7 5 11 13 14 7 7 10 7 4 5 6 3 4 3 3 4 5 3 4 5 3 4 1 8
22 24 25 25 25 25 26 27 28 28 29 29 27 16 7 2 5 11 1 1 5 6 3 11 16 15 7 10 8 8 7 4 3 3 5 5 4 8 4 6 7 5 7 5 5 3 5
22 23 24 25 25 25 27 27 29 29 29 21 9 3 4 2 6 2 1 4 2 3 1 10 13 8 4 5 7 5 4 6 5 3 6 5 2 4 6 4 6 4 3 2 2 2 3
21 23 25 25 25 25 26 28 30 29 30 16 3 4 5 1 4 3 2 2 3 4 12 9 5 4 6 6 7 5 8 6 4 8 2 1 5 3 3 4 2 5 4 3 3 3 6
21 22 24 24 24 24 26 28 30 30 29 11 4 3 4 6 4 2 2 4 2 15 10 1 5 6 10 6 6 6 11 7 8 9 5 2 4 2 1 5 8 4 4 4 3 5 4
20 22 23 23 24 24 26 28 30 29 27 6 2 3 4 4 2 1 1 2 0 5 8 2 6 8 8 7 5 3 8 2 8 13 7 3 5 4 9 7 8 5 6 5 5 6 4
19 21 23 23 23 24 26 27 29 29 23 3 2 2 1 0 3 4 6 9 5 7 5 3 4 3 13 6 6 4 4 5 7 9 11 5 2 1 1 4 1 5 7 6 3 2 10
18 20 22 22 23 23 24 26 28 29 23 3 1 3 4 1 2 2 5 5 5 8 7 5 9 14 7 3 3 8 3 3 4 4 8 6 4 6 6 3 3 1 3 7 9 4 8
17 18 20 21 21 22 24 25 27 28 25 4 3 1 1 3 3 2 1 5 5 4 6 5 6 8 6 4 8 5 6 3 5 2 4 3 3 1 5 7 5 7 10 11 12 16 12
16 16 18 20 21 22 23 24 25 26 24 5 3 3 4 4 1 4 2 3 5 5 6 6 6 10 10 5 1 8 7 4 5 2 3 2 1 1 6 11 10 10 13 14 16 18 20
16 15 16 18 19 20 22 23 24 24 16 3 3 2 2 6 4 1 2 2 4 2 7 6 3 6 10 4 3 3 5 4 7 7 6 5 4 2 6 4 5 3 6 7 6 6 9
14 14 15 16 17 18 18 20 20 21 17 2 2 2 2 4 1 2 1 4 6 4 4 4 8 4 2 2 2 5 5 4 6 5 6 6 5 2 4 5 1 2 6 8 11 7 8
14 13 14 15 14 16 17 17 18 17 18 2 2 2 2 3 4 4 3 5 3 5 6 5 4 1 3 2 2 3 1 2 4 5 6 5 3 1 2 2 6 3 4 2 6 5 7
14 14 13 15 14 12 14 16 16 16 16 3 0 2 2 3 3 4 4 4 4 3 3 2 2 3 4 1 1 3 3 3 4 3 3 5 4 1 0 2 3 2 0 2 4 4 5
14 14 13 13 15 13 12 13 15 14 15 4 1 2 2 2 4 4 1 2 3 3 3 3 1 2 3 1 1 2 2 3 4 6 5 4 3 7 6 4 7 8 4 5 2 4 3
14 15 12 13 14 13 14 12 13 12 12 6 4 0 1 2 7 4 5 3 4 3 2 3 3 1 1 1 1 2 1 3 1 5 6 6 6 4 4 4 7 5 4 3 4 3 3
13 15 11 13 14 13 14 13 12 11 12 6 3 4 2 2 5 4 12 11 4 2 4 2 2 1 2 1 2 1 2 3 2 2 2 3 7 5 8 8 6 1 4 1 2 2 3
Wind_Direction
327 334 343 343 337 326 323 324 320 323 314 317 317 318 321 325 320 316 313 314 303 303 293 260 208 205 174 212 243 227 339 183 182 172 197 211 221 196 179 195 239 228 242 247 249 283 259
335 341 342 336 328 333 334 328 332 327 324 317 314 315 314 314 313 311 307 308 301 296 318 322 205 183 219 219 205 167 133 122 189 188 206 205 222 210 209 241 185 215 192 273 296 311 320
336 335 338 338 337 340 330 330 330 328 323 321 312 315 313 316 314 313 305 305 304 314 307 289 198 176 220 215 124 154 169 178 196 178 194 215 220 176 200 243 245 124 48 342 310 289 254
340 339 342 342 337 332 335 332 335 330 325 320 319 318 310 315 315 307 303 311 303 304 302 290 200 183 235 211 250 133 183 247 248 155 205 143 144 104 92 269 84 70 52 334 246 232 237
342 343 344 334 334 336 338 337 333 330 329 327 325 322 317 316 316 316 320 309 296 293 282 285 176 187 231 148 188 174 191 197 192 152 129 92 61 117 13 126 99 192 223 221 296 245 214
344 340 333 334 339 336 336 334 334 332 329 331 330 326 322 316 320 319 322 310 287 289 253 305 86 161 226 192 160 176 205 208 120 108 93 112 77 94 197 171 186 193 220 251 230 295 241
343 338 336 344 341 342 338 337 337 333 333 333 333 323 318 316 322 322 329 340 357 207 131 272 163 247 151 160 145 175 184 159 113 159 168 150 133 175 204 186 219 236 294 291 277 299 272
344 337 333 342 344 340 338 338 339 337 334 330 326 319 323 327 316 304 307 206 237 96 299 252 171 228 110 129 132 163 170 134 141 157 113 94 207 214 192 209 232 289 276 281 295 339 2
340 346 341 342 342 339 340 339 339 335 333 332 329 325 325 323 315 314 243 236 141 138 267 238 156 162 152 140 140 171 161 131 138 136 153 139 158 195 231 200 201 265 278 286 265 331 344
346 342 347 342 342 340 342 337 339 338 330 330 327 325 323 329 309 339 299 188 104 93 297 148 162 184 158 150 104 162 163 131 148 149 144 86 114 98 152 192 127 60 15 64 33 40 254
345 344 348 344 341 344 342 338 343 335 337 336 332 325 318 321 291 253 87 102 113 59 129 146 145 118 145 153 126 194 230 56 143 143 120 209 146 122 97 71 152 181 86 67 37 7 359
348 347 348 345 344 348 343 343 340 342 339 332 328 318 312 301 203 160 142 130 97 33 274 130 153 145 117 140 99 134 111 46 61 123 134 91 86 101 183 116 79 104 69 23 28 74 325
353 346 347 349 345 351 348 343 345 343 335 329 321 314 313 267 292 136 150 119 66 11 282 164 140 134 129 126 115 149 150 118 125 115 139 117 127 104 86 98 99 84 72 355 353 261 236
354 349 346 351 350 348 349 347 345 341 333 321 314 328 316 290 145 136 70 314 112 217 256 131 127 116 106 116 123 133 139 136 308 85 109 131 327 153 188 163 179 165 165 160 224 226 281
352 351 348 353 350 352 350 348 347 341 339 350 10 353 351 62 127 62 344 43 202 319 161 121 103 101 118 102 128 134 150 154 198 183 123 118 280 119 147 147 135 195 195 169 25 309 36
356 353 347 356 355 355 351 352 348 347 349 11 39 350 22 94 76 30 338 47 312 211 118 142 83 155 136 152 118 132 161 186 192 199 142 323 105 71 162 115 194 147 171 90 11 248 269
354 354 354 356 355 356 354 354 352 352 349 1 38 29 320 345 358 1 304 337 296 139 148 145 148 128 128 134 124 144 184 169 190 181 160 172 95 298 69 203 187 170 200 207 170 163 214
353 358 359 356 356 357 357 356 354 355 353 31 57 66 275 345 31 220 285 173 344 198 252 252 88 101 144 146 130 139 189 208 181 168 172 153 110 187 214 228 193 164 177 160 132 274 250
353 2 357 359 359 360 359 356 358 356 359 318 58 294 284 120 19 350 7 4 335 33 31 49 108 101 134 135 133 196 102 350 168 157 166 146 170 38 154 23 147 193 208 199 230 50 238
356 4 358 358 358 358 357 356 360 356 359 46 348 15 334 332 234 43 4 346 359 3 32 49 92 113 127 172 145 165 110 41 85 99 140 117 155 168 183 179 113 236 232 195 188 221 269
360 6 2 356 356 1 358 1 2 357 354 99 20 19 104 317 341 106 80 338 359 35 1 17 91 153 185 96 119 99 93 82 46 91 80 101 207 119 269 249 221 214 236 237 237 248 247
354 6 2 355 2 2 6 2 4 5 354 64 29 5 342 268 260 91 22 358 16 8 22 38 74 54 67 79 85 141 130 146 186 130 116 105 180 28 277 258 233 246 244 239 236 250 254
350 1 0 357 359 1 359 0 2 8 13 31 346 324 299 288 354 91 248 206 80 76 15 31 50 84 65 31 47 83 90 99 144 140 164 149 134 136 267 316 330 262 224 209 216 204 245
344 353 359 355 357 360 5 360 359 4 16 308 5 278 304 290 168 200 36 74 58 31 113 22 35 74 53 16 61 50 73 97 116 147 147 148 156 169 274 326 1 185 191 201 215 234 245
336 352 354 348 355 356 1 0 357 1 8 344 332 353 313 295 350 329 97 112 78 48 81 81 37 74 352 38 96 113 88 157 202 200 179 146 156 196 270 274 272 270 217 226 183 270 236
329 344 348 344 342 350 355 354 354 354 357 352 350 324 345 329 235 286 277 156 171 143 144 121 42 0 31 82 131 191 177 199 139 119 189 171 126 155 310 327 269 246 52 128 107 267 218
326 338 339 339 332 340 343 348 344 351 350 354 252 321 211 262 277 2 343 242 150 122 129 120 86 43 33 66 118 192 243 136 165 169 171 163 172 213 224 247 281 257 218 144 327 259 255
321 333 336 336 327 331 332 337 337 342 345 5 275 202 93 294 282 278 306 326 5 67 171 159 78 2 50 168 136 277 126 260 32 161 175 166 167 196 174 210 256 238 85 226 243 282 315
314 327 329 328 324 318 321 322 324 329 327 358 310 308 182 217 265 308 272 260 242 307 127 129 142 138 175 199 197 6 338 350 348 272 144 194 187 183 194 212 239 230 228 48 347 265 313